Weather History for Hastings, NE

Change the Weather History Date:

Wednesday, November 20, 2013

  Actual Average Record
Temperature  
Mean Temperature 50 °F 36 °F  
Max Temperature 63 °F 47 °F 74 °F (2003)
Min Temperature 36 °F 26 °F 0 °F (1964)
Degree Days  
Heating Degree Days 15 28  
Month to date heating degree days 445 478  
Since 1 July heating degree days 893 971  
Cooling Degree Days 0 0  
Month to date cooling degree days 0 0  
Year to date cooling degree days 1158 1077  
Moisture  
Dew Point 31 °F    
Average Humidity 54    
Maximum Humidity 76    
Minimum Humidity 32    
Precipitation  
Precipitation 0.00 in 0.04 in 1.84 in (1931)
Month to date precipitation 0.99 0.99  
Year to date precipitation 25.06 26.20  
Snow  
Snow 0.00 in 0.10 in 8.00 in (1975)
Month to date snowfall T 1.3  
Since 1 July snowfall T 2.5  
Since 1 September snowfall T 2.5  
Snow Depth 0.00 in    
Sea Level Pressure  
Sea Level Pressure 29.78 in    
Wind  
Wind Speed 8 mph (SW)    
Max Wind Speed 20 mph    
Max Gust Speed 25 mph    
Visibility 10 miles    
Events      
T = Trace of Precipitation, MM = Missing Value Source: NWS Daily Summary

Daily Weather History Graph

Daily Weather History Graph

Search for Another Location

Airport:

Trip Planner

Search our weather history database for the weather conditions in past years. The results will help you decide how hot, cold, wet, or windy it might be!

Date:

Astronomy

Nov. 20, 2013 Rise Set
Actual Time 7:26 AM CST 5:12 PM CST
Civil Twilight 6:56 AM CST 5:41 PM CST
Nautical Twilight 6:23 AM CST 6:15 PM CST
Astronomical Twilight 5:50 AM CST 6:47 PM CST
Moon 7:56 PM CST (11/20) 9:52 AM CST (11/20)
Length of Visible Light 10h 45m
Length of Day
9h 45m
Waning Gibbous, 91% of the Moon is Illuminated
Nov 20
Waning Gibbous
Nov 25
Last Quarter
Dec 2
New
Dec 9
First Quarter
Dec 17
Full

Hourly Weather History & Observations

Time (CST) Temp. Windchill Dew Point Humidity Pressure Visibility Wind Dir Wind Speed Gust Speed Precip Events Conditions
12:53 AM 45.0 °F 38.9 °F 26.1 °F 48% 29.76 in 10.0 mi South 12.7 mph - N/A   Clear
1:53 AM 45.0 °F 39.3 °F 26.1 °F 48% 29.76 in 10.0 mi South 11.5 mph - N/A   Clear
2:53 AM 45.0 °F 39.3 °F 26.1 °F 48% 29.75 in 10.0 mi South 11.5 mph - N/A   Clear
3:53 AM 44.1 °F 38.6 °F 27.0 °F 51% 29.75 in 10.0 mi South 10.4 mph - N/A   Clear
4:53 AM 43.0 °F 38.2 °F 27.0 °F 53% 29.74 in 10.0 mi South 8.1 mph - N/A   Clear
5:53 AM 44.1 °F 38.6 °F 28.0 °F 53% 29.73 in 10.0 mi South 10.4 mph - N/A   Clear
6:53 AM 43.0 °F 37.2 °F 28.0 °F 56% 29.75 in 10.0 mi SSW 10.4 mph - N/A   Scattered Clouds
7:53 AM 43.0 °F 38.8 °F 28.9 °F 58% 29.75 in 10.0 mi SSW 6.9 mph - N/A   Scattered Clouds
8:53 AM 44.1 °F 39.5 °F 30.0 °F 58% 29.76 in 10.0 mi SSW 8.1 mph - N/A   Clear
9:53 AM 50.0 °F - 33.1 °F 52% 29.75 in 10.0 mi SSW 8.1 mph - N/A   Clear
10:53 AM 54.0 °F - 34.0 °F 47% 29.76 in 10.0 mi SW 9.2 mph - N/A   Clear
11:53 AM 57.9 °F - 34.0 °F 41% 29.73 in 10.0 mi SW 5.8 mph - N/A   Clear
12:53 PM 60.1 °F - 34.0 °F 38% 29.70 in 10.0 mi SSW 5.8 mph - N/A   Clear
1:53 PM 62.1 °F - 33.1 °F 34% 29.70 in 10.0 mi Variable 4.6 mph - N/A   Clear
2:53 PM 63.0 °F - 32.0 °F 31% 29.70 in 10.0 mi West 10.4 mph - N/A   Clear
3:53 PM 61.0 °F - 33.1 °F 35% 29.72 in 10.0 mi WNW 8.1 mph - N/A   Clear
4:53 PM 57.0 °F - 33.1 °F 40% 29.75 in 10.0 mi West 4.6 mph - N/A   Clear
5:53 PM 48.0 °F - 33.1 °F 56% 29.80 in 10.0 mi Calm Calm - N/A   Clear
6:53 PM 46.0 °F 41.4 °F 34.0 °F 63% 29.82 in 10.0 mi North 9.2 mph - N/A   Clear
7:53 PM 41.0 °F 38.0 °F 32.0 °F 70% 29.85 in 10.0 mi NNE 4.6 mph - N/A   Clear
8:53 PM 41.0 °F 38.0 °F 32.0 °F 70% 29.88 in 10.0 mi North 4.6 mph - N/A   Clear
9:53 PM 37.0 °F 32.4 °F 30.0 °F 76% 29.91 in 10.0 mi NNE 5.8 mph - N/A   Clear
10:53 PM 39.0 °F 31.8 °F 32.0 °F 76% 29.94 in 10.0 mi North 11.5 mph - N/A   Clear
11:53 PM 37.9 °F 28.5 °F 30.9 °F 76% 29.98 in 10.0 mi North 17.3 mph 25.3 mph N/A   Clear